Theta_e
306 306 308 309 310 310 311 312 313 315 314 313 312 312 312 312 313 313 314 314 316 318 318 317 320 323 326 328 332 336 336 336 335 334 332 332 331 329 327 325 321 319 323
305 307 308 309 309 310 312 314 314 314 315 314 313 312 312 313 312 312 312 314 315 316 318 317 319 322 325 327 330 333 334 335 335 334 333 333 330 327 328 327 324 322 320
305 306 308 308 308 309 312 312 313 315 315 314 313 313 312 312 312 313 313 314 314 316 317 317 317 320 324 325 328 331 332 334 334 334 331 327 335 332 330 327 326 324 323
304 306 308 308 308 310 309 311 313 315 314 313 313 313 313 313 314 314 314 315 315 316 317 317 317 317 321 324 326 327 330 332 334 333 334 333 329 330 332 324 326 326 324
305 308 308 307 308 309 309 311 312 313 313 312 313 313 314 314 314 315 315 315 316 317 318 318 317 317 319 321 323 326 326 329 331 333 332 332 329 325 325 333 324 323 324
307 307 307 307 308 308 309 309 309 311 311 312 313 313 314 315 315 314 315 315 316 317 318 319 318 317 318 320 323 325 325 326 329 329 331 332 332 328 324 327 327 324 324
307 307 307 307 307 307 307 307 307 309 309 310 312 313 313 313 314 316 316 316 316 317 317 318 318 318 318 319 321 323 325 326 327 328 329 330 330 332 329 329 330 326 324
306 306 307 306 306 307 307 307 306 307 308 309 311 314 313 313 314 314 315 317 317 318 319 318 318 318 319 320 321 322 323 325 326 326 328 328 329 330 331 328 329 328 325
306 306 306 305 306 306 306 306 306 306 306 308 311 312 312 313 312 312 313 315 316 317 318 319 318 318 318 319 320 321 322 324 325 326 327 327 327 327 327 328 327 326 328
305 305 305 304 306 306 306 305 305 305 305 307 309 311 312 313 313 312 312 313 315 317 318 318 318 318 318 318 319 320 321 323 324 324 326 327 327 327 327 327 327 327 326
303 303 303 303 304 305 305 305 305 305 305 305 307 310 313 313 312 310 311 311 312 317 319 318 317 318 318 318 319 319 320 320 322 323 324 324 325 327 326 327 326 326 326
302 302 301 301 302 304 305 305 305 304 305 305 305 307 310 312 311 309 309 309 311 313 317 318 318 318 318 319 319 320 320 321 321 321 322 323 324 326 326 326 326 326 326
300 300 300 301 301 302 304 305 305 305 304 305 305 305 308 311 311 310 309 307 308 310 314 317 318 320 320 320 320 320 319 319 320 321 322 323 323 323 325 325 324 325 326
295 296 296 296 297 298 300 303 304 304 304 305 305 305 305 308 310 310 310 308 308 309 308 312 316 318 320 319 320 320 320 320 319 319 320 323 323 322 322 323 324 324 324
296 296 295 295 295 296 298 300 303 304 304 304 304 304 304 305 308 310 310 310 309 308 306 308 310 311 312 315 317 319 320 320 320 320 320 322 323 322 322 324 324 324 324
297 296 295 295 296 298 299 300 303 304 303 304 304 304 304 304 305 308 308 308 308 308 307 305 305 305 305 307 315 318 319 319 319 320 321 320 321 322 323 323 323 324 324
297 297 296 296 296 298 300 301 303 304 303 303 304 304 303 303 304 305 306 307 306 305 305 305 303 303 303 303 307 316 315 318 318 317 318 319 321 322 322 323 322 319 322
297 297 296 296 297 298 299 301 303 303 303 303 303 303 303 303 303 302 302 303 304 303 303 303 303 302 302 302 303 304 305 304 304 305 307 307 308 311 315 311 311 311 314
297 296 297 298 299 299 299 300 302 302 302 303 303 303 302 302 302 302 301 300 300 300 300 300 301 302 302 305 303 303 302 301 300 301 302 305 304 304 303 304 302 301 301
297 297 299 298 298 300 300 300 301 301 301 302 303 303 302 302 302 301 301 299 298 298 298 298 299 300 300 301 304 304 301 299 298 298 299 300 300 303 306 305 301 299 299
300 300 299 299 301 300 300 299 300 299 303 303 303 302 302 302 302 301 300 299 297 296 295 295 295 297 297 297 299 299 299 299 297 296 296 297 298 298 300 301 300 298 298
299 299 298 299 302 301 299 299 299 302 303 302 302 302 302 302 301 301 300 298 297 296 294 293 292 293 295 295 295 295 295 296 295 294 295 295 295 295 295 296 296 296 296
300 299 299 298 301 301 300 299 300 300 301 301 301 302 301 301 301 300 299 298 297 295 294 292 290 290 291 293 294 293 293 293 293 293 293 292 292 292 292 292 292 292 291
299 299 298 298 298 300 300 301 301 300 301 300 300 301 301 300 300 299 300 299 297 295 294 293 290 290 290 290 291 291 291 291 291 291 290 289 289 289 288 288 288 288 288
300 299 299 299 299 299 300 302 303 300 299 299 299 299 300 299 299 298 299 299 299 298 296 295 293 290 290 290 290 291 290 289 288 287 287 286 286 286 286 285 285 285 285
300 300 299 298 298 298 298 299 302 299 298 298 298 298 298 298 298 297 296 296 297 297 296 296 295 292 291 291 291 292 290 289 287 287 286 286 286 286 285 285 284 284 284
Wind_Speed
10 12 12 10 10 11 11 11 13 12 14 17 16 17 15 18 18 18 21 21 22 24 25 26 26 28 28 29 29 30 29 30 30 22 20 24 26 26 28 32 32 32 39
5 8 10 10 10 10 9 10 10 12 13 15 17 17 17 21 23 22 21 22 24 25 26 27 26 27 28 29 30 30 30 29 29 20 12 6 14 23 31 29 31 34 32
10 8 8 11 10 9 8 8 10 12 13 14 16 17 16 16 16 19 21 23 21 26 29 27 26 28 28 30 31 31 33 27 26 35 13 3 8 7 21 30 34 34 33
4 4 7 7 8 9 8 9 11 12 15 15 15 15 17 18 20 22 23 24 24 25 26 29 30 29 28 31 31 33 32 31 25 27 40 30 11 5 5 12 27 35 35
5 6 6 6 6 7 7 9 11 12 14 17 16 16 18 20 22 22 23 25 25 26 25 27 29 31 30 31 32 31 33 33 33 26 16 24 18 13 2 6 5 21 31
3 4 5 6 7 6 8 9 12 14 14 15 16 16 20 22 21 21 21 22 22 25 27 27 30 33 32 32 33 35 34 34 33 35 26 21 14 11 7 8 5 8 17
4 4 5 7 8 8 9 11 12 16 15 15 16 15 18 21 22 22 22 22 21 23 25 28 30 31 33 31 32 33 33 36 34 34 32 26 29 31 24 24 13 6 11
4 5 6 9 10 10 10 11 13 16 15 15 16 15 16 18 20 20 20 22 24 25 27 29 29 29 30 32 32 33 34 33 33 33 32 30 29 23 26 23 18 8 4
5 7 8 12 12 12 13 13 13 14 14 14 15 15 14 15 21 24 24 23 24 26 27 30 28 28 29 30 32 32 32 32 32 31 29 30 28 26 31 27 24 12 6
6 6 7 13 15 15 15 14 14 15 14 13 14 15 16 17 18 20 23 24 26 25 27 28 28 26 28 27 30 30 30 31 30 30 27 26 24 24 29 29 27 28 22
7 7 7 15 17 17 17 17 15 15 17 16 16 17 17 17 18 17 21 23 23 21 23 25 25 27 26 27 27 30 29 31 30 29 28 27 26 25 25 26 28 28 28
8 7 8 14 16 19 20 19 17 16 15 16 16 17 16 17 18 17 20 23 21 21 18 22 21 21 21 24 25 28 30 30 28 28 25 24 25 27 25 27 28 28 29
11 11 8 8 14 19 22 23 20 17 15 15 16 18 17 17 18 21 21 20 20 20 20 15 20 21 24 22 26 29 29 28 28 28 27 25 25 26 27 28 29 28 26
11 9 8 9 14 18 22 24 22 17 14 13 14 16 16 17 17 18 21 19 19 19 19 16 12 16 21 22 23 26 29 30 29 26 28 26 28 27 27 27 26 24 24
11 9 8 8 11 16 18 22 22 17 14 13 13 13 14 14 14 14 15 16 19 20 18 15 13 13 10 7 13 17 25 28 25 29 31 29 30 30 30 26 26 27 27
12 9 8 9 10 14 17 16 19 18 14 14 13 11 11 12 12 12 12 13 15 17 19 20 19 19 19 18 18 21 21 24 27 24 26 27 28 33 35 36 34 31 29
11 10 9 8 13 19 18 18 19 15 15 14 13 11 9 9 9 9 9 9 11 12 16 19 19 21 23 20 14 4 10 10 10 12 14 21 27 34 31 33 31 19 31
9 9 6 10 17 17 17 18 17 16 16 15 14 11 9 7 5 5 5 6 8 9 11 15 18 21 23 20 19 18 18 20 17 12 8 7 4 10 21 23 22 19 15
11 12 19 19 21 20 18 15 17 18 17 18 16 13 11 8 6 3 2 3 5 8 10 13 15 18 22 19 20 23 25 28 28 29 23 22 18 19 21 30 30 30 31
17 16 21 21 18 21 13 15 20 21 22 22 19 14 13 10 8 5 3 3 5 8 9 13 14 16 17 17 16 18 21 25 23 26 28 28 24 23 25 27 27 25 20
20 24 23 19 22 20 13 17 21 23 30 22 18 16 15 13 10 9 7 7 7 7 9 12 13 14 15 15 15 15 18 20 21 21 23 23 24 24 23 22 22 23 16
19 25 16 20 24 18 13 19 19 32 28 23 21 20 18 16 14 12 11 9 8 7 7 8 10 11 12 13 14 14 16 16 21 20 20 20 20 21 22 22 18 15 15
20 24 21 20 27 26 19 17 28 24 27 25 26 24 21 19 17 17 16 14 10 8 6 5 6 7 8 10 12 13 15 16 20 18 17 16 18 20 21 18 15 15 17
17 23 20 17 19 27 25 22 19 22 23 28 29 28 25 23 20 19 18 16 14 11 9 7 6 5 6 7 8 10 12 14 17 16 16 16 17 18 18 18 18 18 16
23 23 22 20 23 27 27 29 22 18 25 28 27 28 28 26 24 22 21 21 17 15 13 11 10 10 7 7 8 8 11 13 14 14 13 14 14 14 15 16 15 15 14
25 24 25 22 26 26 26 29 25 22 22 22 23 25 25 25 26 24 17 15 13 13 11 10 11 11 8 10 9 9 11 12 10 12 11 10 9 9 9 9 9 9 10
Wind_Direction
259 258 249 228 237 259 272 284 294 305 309 307 303 301 296 297 288 280 281 274 265 260 252 247 240 235 234 230 228 228 219 214 215 215 228 229 237 236 236 237 238 238 239
243 251 231 227 233 250 270 284 294 307 313 310 303 293 290 298 291 285 278 271 265 259 255 247 240 236 234 232 228 223 231 217 212 217 226 219 231 234 237 233 234 237 238
226 222 197 219 231 245 259 278 298 308 317 324 315 303 284 281 284 281 280 287 268 261 255 252 245 236 233 235 231 226 221 230 219 214 203 198 233 196 231 231 233 233 232
244 216 195 219 233 249 265 283 299 307 319 324 314 293 276 273 276 277 277 281 277 268 258 254 250 242 236 235 233 230 230 226 227 216 222 227 242 209 219 223 227 231 229
256 224 217 239 258 270 282 290 304 311 317 318 316 299 285 276 277 276 274 276 277 272 262 258 253 245 237 239 236 231 229 232 232 223 215 230 214 252 197 235 211 228 232
261 277 297 284 273 274 281 294 307 309 313 318 315 307 293 290 279 269 265 272 269 270 268 264 256 248 241 236 234 230 230 232 235 235 221 217 213 198 224 244 216 224 223
300 302 285 277 277 280 286 294 301 303 312 312 318 317 305 295 289 285 273 268 263 261 256 258 256 246 243 237 236 235 232 227 229 231 232 236 235 224 217 233 236 234 217
259 262 257 260 271 278 277 280 292 300 309 310 319 326 326 309 301 296 293 283 267 262 264 260 252 251 245 241 235 237 236 231 230 232 230 233 235 247 225 219 229 229 212
239 244 251 255 265 264 266 273 281 291 301 309 320 321 322 325 318 309 305 296 289 272 268 261 254 251 251 244 243 241 235 233 229 229 228 234 237 232 242 236 222 225 219
281 270 270 267 264 263 268 272 278 288 299 312 317 325 334 337 331 324 312 303 302 283 276 260 253 247 252 254 249 245 241 232 229 228 225 224 226 227 226 230 225 221 224
276 265 262 270 265 260 258 264 275 293 305 314 325 329 333 331 328 327 328 321 313 303 285 266 252 254 251 254 252 249 241 235 232 231 226 227 230 222 223 218 215 216 216
271 265 261 272 271 266 266 265 274 279 291 305 320 324 323 328 336 338 337 342 329 319 308 273 260 257 257 257 251 249 246 237 229 229 222 230 232 230 222 223 218 214 219
287 285 273 255 258 264 261 260 259 265 283 302 316 317 323 332 338 345 346 346 342 334 319 300 275 265 261 254 256 252 247 241 236 231 221 223 226 232 231 228 233 227 222
282 276 273 271 268 267 262 256 256 258 269 284 296 304 319 330 335 347 353 357 359 354 337 322 302 280 273 263 258 253 249 241 236 234 246 224 225 229 230 230 233 236 235
300 286 280 270 267 277 273 258 251 252 255 260 275 296 314 326 333 343 353 6 11 14 1 360 353 343 327 286 258 261 251 242 248 246 247 235 232 232 231 227 227 228 227
305 298 287 288 275 270 278 263 245 246 244 258 273 288 306 321 337 340 343 355 5 19 23 25 27 26 8 339 284 263 254 249 244 247 255 258 251 244 239 236 230 221 224
298 300 295 284 287 285 282 261 250 245 242 251 262 275 289 309 329 336 334 351 1 10 22 32 31 27 22 14 14 291 226 238 226 237 242 248 247 240 234 230 234 229 229
282 290 278 290 300 301 290 266 250 236 234 244 254 258 267 274 294 321 349 2 19 28 34 35 37 36 30 32 51 70 85 77 76 84 107 98 116 166 184 161 138 111 108
279 273 285 291 300 298 295 265 246 234 233 238 247 253 252 256 257 261 324 37 50 55 56 54 47 44 38 44 63 75 76 77 65 62 72 82 82 96 107 104 97 90 82
277 283 299 302 296 296 292 257 242 235 230 237 236 236 240 238 234 229 193 131 96 81 71 64 59 59 54 46 56 68 75 70 63 62 63 62 67 86 94 100 98 82 84
297 297 290 287 294 300 274 248 245 235 243 240 236 230 227 232 224 207 202 169 143 109 88 76 66 60 57 53 62 66 78 85 79 66 61 67 72 70 79 84 89 97 100
291 288 276 284 299 295 270 242 236 255 248 240 228 228 222 219 217 206 192 187 176 151 126 106 83 71 69 56 61 72 79 91 94 86 82 76 78 79 79 84 88 94 102
287 284 275 275 292 290 268 241 263 259 252 235 229 222 222 217 211 205 198 188 191 180 164 141 117 100 88 87 77 77 85 89 92 91 93 91 88 89 82 85 91 94 88
286 279 273 265 269 281 274 264 278 264 245 233 226 224 215 213 211 207 207 202 194 191 184 175 159 140 119 107 102 100 96 97 98 101 93 88 87 86 92 87 81 79 84
289 278 278 270 267 273 268 277 271 257 233 229 220 216 214 207 209 210 207 209 215 209 199 196 186 172 165 149 130 123 123 117 111 109 101 91 86 81 76 74 75 77 78
289 285 281 274 269 269 263 272 268 256 227 221 213 209 203 203 203 200 199 209 217 209 205 203 198 184 175 152 142 133 135 140 138 124 115 106 101 96 97 96 89 83 80